TimeMDT,TemperatureF,Dew PointF,Humidity,Sea Level PressureIn,VisibilityMPH,Wind Direction,Wind SpeedMPH,Gust SpeedMPH,PrecipitationIn,Events,Conditions,WindDirDegrees,DateUTC
12:15 AM,49.1,38.5,67,30.21,10.0,NNW,6.9,-,N/A,,Clear,330,2013-09-24 06:15:00
12:35 AM,47.3,38.7,72,30.21,10.0,NW,10.4,-,N/A,,Clear,320,2013-09-24 06:35:00
12:55 AM,46.4,39.2,76,30.21,10.0,NW,9.2,-,N/A,,Clear,320,2013-09-24 06:55:00
1:15 AM,46.9,38.8,73,30.21,10.0,NW,5.8,-,N/A,,Clear,320,2013-09-24 07:15:00
1:35 AM,45.7,39.2,78,30.21,10.0,NW,8.1,-,N/A,,Clear,310,2013-09-24 07:35:00
1:55 AM,46.6,39.0,75,30.22,10.0,NW,8.1,-,N/A,,Clear,320,2013-09-24 07:55:00
2:15 AM,43.9,38.5,81,30.22,10.0,NNE,5.8,-,N/A,,Clear,20,2013-09-24 08:15:00
2:35 AM,43.2,38.3,83,30.23,10.0,NE,5.8,-,N/A,,Clear,50,2013-09-24 08:35:00
2:55 AM,42.4,38.3,85,30.23,10.0,NE,5.8,-,N/A,,Clear,40,2013-09-24 08:55:00
3:15 AM,41.9,37.9,86,30.23,10.0,NNE,4.6,-,N/A,,Clear,30,2013-09-24 09:15:00
3:35 AM,41.0,37.6,88,30.23,10.0,NNE,4.6,-,N/A,,Clear,30,2013-09-24 09:35:00
3:55 AM,41.0,37.4,87,30.23,10.0,NNE,3.5,-,N/A,,Clear,30,2013-09-24 09:55:00
4:15 AM,41.5,37.6,86,30.23,10.0,ENE,3.5,-,N/A,,Clear,70,2013-09-24 10:15:00
4:35 AM,40.1,36.7,88,30.23,10.0,NE,3.5,-,N/A,,Clear,40,2013-09-24 10:35:00
4:55 AM,39.7,36.5,88,30.24,10.0,NNE,3.5,-,N/A,,Clear,30,2013-09-24 10:55:00
5:15 AM,39.7,37.0,90,30.25,10.0,East,6.9,-,N/A,,Clear,80,2013-09-24 11:15:00
5:35 AM,41.4,37.8,87,30.26,10.0,ENE,6.9,-,N/A,,Clear,70,2013-09-24 11:35:00
5:55 AM,41.2,37.4,86,30.26,10.0,ENE,4.6,-,N/A,,Clear,60,2013-09-24 11:55:00
6:15 AM,40.5,36.9,87,30.26,10.0,Calm,Calm,-,N/A,,Clear,0,2013-09-24 12:15:00
6:35 AM,40.3,36.5,86,30.27,10.0,WNW,4.6,-,N/A,,Clear,300,2013-09-24 12:35:00
6:55 AM,40.1,36.0,85,30.28,10.0,West,3.5,-,N/A,,Clear,270,2013-09-24 12:55:00
7:15 AM,38.5,35.8,90,30.29,10.0,Calm,Calm,-,N/A,,Clear,0,2013-09-24 13:15:00
7:35 AM,41.5,38.5,89,30.29,10.0,Calm,Calm,-,N/A,,Clear,0,2013-09-24 13:35:00
7:55 AM,44.8,39.7,82,30.31,10.0,Calm,Calm,-,N/A,,Clear,0,2013-09-24 13:55:00
8:15 AM,47.5,40.1,76,30.30,10.0,Calm,Calm,-,N/A,,Clear,0,2013-09-24 14:15:00
8:35 AM,49.3,40.1,71,30.30,10.0,North,3.5,-,N/A,,Clear,360,2013-09-24 14:35:00
8:55 AM,50.9,39.4,65,30.31,10.0,Calm,Calm,-,N/A,,Clear,0,2013-09-24 14:55:00
9:15 AM,53.4,40.3,61,30.31,10.0,Calm,Calm,-,N/A,,Clear,0,2013-09-24 15:15:00
9:35 AM,55.4,40.1,56,30.31,10.0,Calm,Calm,-,N/A,,Clear,0,2013-09-24 15:35:00
9:55 AM,57.4,40.5,53,30.31,10.0,South,3.5,-,N/A,,Clear,190,2013-09-24 15:55:00
10:15 AM,58.5,40.5,51,30.31,10.0,South,5.8,-,N/A,,Clear,180,2013-09-24 16:15:00
10:35 AM,60.3,41.0,49,30.31,10.0,South,5.8,-,N/A,,Clear,170,2013-09-24 16:35:00
10:55 AM,61.3,41.4,48,30.31,10.0,South,3.5,-,N/A,,Clear,180,2013-09-24 16:55:00
11:15 AM,62.1,40.8,46,30.31,10.0,SSE,6.9,-,N/A,,Clear,160,2013-09-24 17:15:00
11:35 AM,63.5,39.7,42,30.29,10.0,South,3.5,-,N/A,,Clear,170,2013-09-24 17:35:00
11:55 AM,64.2,37.9,38,30.29,10.0,Calm,Calm,-,N/A,,Clear,0,2013-09-24 17:55:00
12:15 PM,65.1,38.1,37,30.29,10.0,Calm,Calm,-,N/A,,Clear,0,2013-09-24 18:15:00
12:35 PM,66.4,33.4,29,30.28,10.0,Calm,Calm,-,N/A,,Clear,0,2013-09-24 18:35:00
12:55 PM,67.5,32.5,27,30.27,10.0,South,3.5,-,N/A,,Clear,180,2013-09-24 18:55:00
1:15 PM,68.2,37.0,32,30.26,10.0,SSE,3.5,-,N/A,,Clear,160,2013-09-24 19:15:00
1:35 PM,69.3,36.3,30,30.24,10.0,South,3.5,-,N/A,,Clear,190,2013-09-24 19:35:00
1:55 PM,69.8,34.3,27,30.23,10.0,SW,4.6,-,N/A,,Clear,220,2013-09-24 19:55:00
2:15 PM,70.3,34.3,27,30.22,10.0,SSE,5.8,-,N/A,,Clear,160,2013-09-24 20:15:00
2:35 PM,71.1,32.5,24,30.21,10.0,South,3.5,-,N/A,,Clear,180,2013-09-24 20:35:00
2:55 PM,71.4,32.9,24,30.21,10.0,Calm,Calm,-,N/A,,Clear,0,2013-09-24 20:55:00
3:15 PM,72.1,32.7,23,30.20,10.0,South,4.6,-,N/A,,Clear,170,2013-09-24 21:15:00
3:35 PM,72.1,32.0,23,30.19,10.0,ESE,3.5,-,N/A,,Clear,120,2013-09-24 21:35:00
3:55 PM,72.5,33.6,24,30.18,10.0,SSE,4.6,-,N/A,,Clear,160,2013-09-24 21:55:00
4:15 PM,72.3,35.4,26,30.17,10.0,SSW,6.9,-,N/A,,Clear,200,2013-09-24 22:15:00
4:35 PM,71.8,35.8,27,30.17,10.0,SSW,5.8,-,N/A,,Clear,200,2013-09-24 22:35:00
4:55 PM,72.3,34.9,25,30.17,10.0,SSW,6.9,-,N/A,,Clear,200,2013-09-24 22:55:00
5:15 PM,72.0,34.0,25,30.17,10.0,South,6.9,-,N/A,,Clear,170,2013-09-24 23:15:00
5:35 PM,71.8,31.5,23,30.16,10.0,SE,5.8,-,N/A,,Clear,140,2013-09-24 23:35:00
5:55 PM,71.4,31.8,23,30.16,10.0,SE,3.5,-,N/A,,Clear,130,2013-09-24 23:55:00
6:15 PM,70.5,32.0,24,30.15,10.0,ESE,3.5,-,N/A,,Clear,120,2013-09-25 00:15:00
6:35 PM,67.8,37.4,33,30.15,10.0,ESE,3.5,-,N/A,,Clear,120,2013-09-25 00:35:00
6:55 PM,63.7,39.6,41,30.15,10.0,SE,4.6,-,N/A,,Clear,130,2013-09-25 00:55:00
7:15 PM,61.5,41.2,47,30.16,10.0,ESE,4.6,-,N/A,,Clear,120,2013-09-25 01:15:00
7:35 PM,59.5,41.2,51,30.16,10.0,ESE,5.8,-,N/A,,Clear,120,2013-09-25 01:35:00
7:55 PM,60.8,38.3,43,30.16,10.0,WSW,4.6,-,N/A,,Clear,240,2013-09-25 01:55:00
8:15 PM,57.7,43.7,60,30.16,10.0,WSW,6.9,-,N/A,,Clear,250,2013-09-25 02:15:00
8:35 PM,57.0,44.6,63,30.17,10.0,West,5.8,-,N/A,,Clear,260,2013-09-25 02:35:00
8:55 PM,54.9,44.8,69,30.17,10.0,Calm,Calm,-,N/A,,Clear,0,2013-09-25 02:55:00
9:15 PM,55.0,44.6,68,30.17,10.0,Calm,Calm,-,N/A,,Clear,0,2013-09-25 03:15:00
9:35 PM,52.7,44.2,73,30.17,10.0,Calm,Calm,-,N/A,,Clear,0,2013-09-25 03:35:00
9:55 PM,49.6,43.7,80,30.17,10.0,Calm,Calm,-,N/A,,Clear,0,2013-09-25 03:55:00
10:15 PM,50.5,43.0,75,30.17,10.0,Calm,Calm,-,N/A,,Clear,0,2013-09-25 04:15:00
10:35 PM,47.5,43.0,84,30.17,10.0,Calm,Calm,-,N/A,,Clear,0,2013-09-25 04:35:00
10:55 PM,46.0,42.1,86,30.16,10.0,Calm,Calm,-,N/A,,Clear,0,2013-09-25 04:55:00
11:15 PM,47.1,43.0,86,30.16,10.0,Calm,Calm,-,N/A,,Clear,0,2013-09-25 05:15:00
11:35 PM,45.0,41.7,88,30.16,10.0,Calm,Calm,-,N/A,,Clear,0,2013-09-25 05:35:00
11:55 PM,44.4,41.4,89,30.15,10.0,Calm,Calm,-,N/A,,Clear,0,2013-09-25 05:55:00